Weather History for Jonesville, VA

Change the Weather History Date:

Friday, October 26, 2012

  Actual Average (KLOZ) Record (KLOZ)
Temperature  
Mean Temperature 62 °F 54 °F  
Max Temperature 77 °F 66 °F 83 °F (1991)
Min Temperature 46 °F 42 °F 18 °F (1962)
Degree Days  
Heating Degree Days 4 11  
Month to date heating degree days 201  
Since 1 July heating degree days 248  
Cooling Degree Days 0 0  
Month to date cooling degree days 17  
Year to date cooling degree days 1184  
Growing Degree Days 12 (Base 50)    
Moisture  
Dew Point 51 °F    
Average Humidity 74    
Maximum Humidity 100    
Minimum Humidity 39    
Precipitation  
Precipitation 0.00 in 0.10 in 1.30 in (1981)
Month to date precipitation 2.49  
Year to date precipitation 38.54  
Sea Level Pressure  
Sea Level Pressure 30.07 in    
Wind  
Wind Speed 1 mph (SW)    
Max Wind Speed 6 mph    
Max Gust Speed -    
Visibility 10 miles    
Events      
T = Trace of Precipitation, MM = Missing Value Source: NWS Daily Summary

Daily Weather History Graph

Daily Weather History Graph

Search for Another Location

Airport:

Trip Planner

Search our weather history database for the weather conditions in past years. The results will help you decide how hot, cold, wet, or windy it might be!

Date:

Astronomy

Oct. 26, 2012 Rise Set
Actual Time 7:50 AM EDT 6:42 PM EDT
Civil Twilight 7:24 AM EDT 7:08 PM EDT
Nautical Twilight 6:54 AM EDT 7:38 PM EDT
Astronomical Twilight 6:24 AM EDT 8:08 PM EDT
Moon 4:54 PM EDT (10/26) 4:50 AM EDT (10/26)
Length of Visible Light 11h 44m
Length of Day
10h 51m
Waxing Gibbous, 91% of the Moon is Illuminated
Oct 26
Waxing Gibbous
Oct 29
Full
Nov 6
Last Quarter
Nov 13
New
Nov 20
First Quarter

Hourly Weather History & Observations

Time (EDT) Temp. Dew Point Humidity Pressure Visibility Wind Dir Wind Speed Gust Speed Precip Events Conditions
12:15 AM 51.8 °F 48.2 °F 88% 30.11 in 10.0 mi Calm Calm - N/A   Unknown
12:35 AM 51.8 °F 46.4 °F 82% 30.11 in 10.0 mi Calm Calm - N/A   Unknown
12:55 AM 50.0 °F 46.4 °F 87% 30.10 in 10.0 mi Calm Calm - N/A   Unknown
1:15 AM 50.0 °F 46.4 °F 87% 30.11 in 10.0 mi Calm Calm - N/A   Unknown
1:35 AM 50.0 °F 46.4 °F 87% 30.10 in 10.0 mi Calm Calm - N/A   Unknown
1:55 AM 50.0 °F 46.4 °F 87% 30.10 in 10.0 mi Calm Calm - N/A   Unknown
2:15 AM 50.0 °F 46.4 °F 87% 30.10 in 10.0 mi Calm Calm - N/A   Unknown
2:55 AM 48.2 °F 46.4 °F 93% 30.10 in 10.0 mi Calm Calm - N/A   Unknown
3:15 AM 48.2 °F 46.4 °F 93% 30.10 in 10.0 mi Calm Calm - N/A   Unknown
3:55 AM 48.2 °F 46.4 °F 93% 30.10 in 10.0 mi Calm Calm - N/A   Unknown
4:15 AM 46.4 °F 46.4 °F 100% 30.11 in 10.0 mi Calm Calm - N/A   Unknown
4:35 AM 48.2 °F 46.4 °F 93% 30.11 in 10.0 mi Calm Calm - N/A   Unknown
4:55 AM 48.2 °F 46.4 °F 93% 30.11 in 10.0 mi Calm Calm - N/A   Unknown
5:15 AM 48.2 °F 46.4 °F 93% 30.11 in 10.0 mi Calm Calm - N/A   Unknown
5:35 AM 48.2 °F 46.4 °F 93% 30.11 in 10.0 mi Calm Calm - N/A   Unknown
5:55 AM 48.2 °F 46.4 °F 93% 30.11 in 10.0 mi Calm Calm - N/A   Unknown
6:15 AM 46.4 °F 46.4 °F 100% 30.11 in 10.0 mi Calm Calm - N/A   Unknown
6:35 AM 48.2 °F 46.4 °F 93% 30.11 in 10.0 mi Calm Calm - N/A   Unknown
6:55 AM 48.2 °F 46.4 °F 93% 30.12 in 10.0 mi Calm Calm - N/A   Unknown
7:15 AM 48.2 °F 48.2 °F 100% 30.12 in 10.0 mi Calm Calm - N/A   Unknown
7:35 AM 46.4 °F 46.4 °F 100% 30.12 in 10.0 mi Calm Calm - N/A   Unknown
7:55 AM 48.2 °F 48.2 °F 100% 30.13 in 10.0 mi Calm Calm - N/A   Unknown
8:15 AM 48.2 °F 46.4 °F 93% 30.13 in 10.0 mi Calm Calm - N/A   Unknown
8:35 AM 48.2 °F 48.2 °F 100% 30.14 in 10.0 mi Calm Calm - N/A   Unknown
9:15 AM 53.6 °F 50.0 °F 88% 30.14 in 10.0 mi Calm Calm - N/A   Partly Cloudy
9:35 AM 53.6 °F 50.0 °F 88% 30.14 in 10.0 mi Calm Calm - N/A   Partly Cloudy
9:55 AM 57.2 °F 50.0 °F 77% 30.14 in 10.0 mi Calm Calm - N/A   Partly Cloudy
10:15 AM 60.8 °F 53.6 °F 77% 30.14 in 10.0 mi Calm Calm - N/A   Clear
10:35 AM 62.6 °F 53.6 °F 72% 30.14 in 10.0 mi Calm Calm - N/A   Clear
10:55 AM 64.4 °F 55.4 °F 73% 30.13 in 10.0 mi Calm Calm - N/A   Clear
11:15 AM 68.0 °F 55.4 °F 64% 30.13 in 10.0 mi Calm Calm - N/A   Clear
11:35 AM 71.6 °F 55.4 °F 57% 30.12 in 10.0 mi North 3.5 mph - N/A   Partly Cloudy
12:15 PM 73.4 °F 55.4 °F 53% 30.11 in 10.0 mi Calm Calm - N/A   Clear
12:35 PM 73.4 °F 55.4 °F 53% 30.11 in 10.0 mi Calm Calm - N/A   Clear
12:55 PM 73.4 °F 55.4 °F 53% 30.10 in 10.0 mi Calm Calm - N/A   Partly Cloudy
1:15 PM 73.4 °F 53.6 °F 50% 30.08 in 10.0 mi SSW 3.5 mph - N/A   Partly Cloudy
1:35 PM 73.4 °F 53.6 °F 50% 30.07 in 10.0 mi SW 3.5 mph - N/A   Partly Cloudy
1:55 PM 73.4 °F 53.6 °F 50% 30.06 in 10.0 mi SW 4.6 mph - N/A   Clear
2:15 PM 75.2 °F 53.6 °F 47% 30.05 in 10.0 mi WNW 4.6 mph - N/A   Clear
2:35 PM 75.2 °F 53.6 °F 47% 30.05 in 10.0 mi SW 4.6 mph - N/A   Clear
2:55 PM 75.2 °F 53.6 °F 47% 30.04 in 10.0 mi SW 5.8 mph - N/A   Partly Cloudy
3:15 PM 77.0 °F 50.0 °F 39% 30.03 in 10.0 mi South 4.6 mph - N/A   Partly Cloudy
3:35 PM 75.2 °F 51.8 °F 44% 30.02 in 10.0 mi Calm Calm - N/A   Partly Cloudy
3:55 PM 75.2 °F 53.6 °F 47% 30.02 in 10.0 mi SW 5.8 mph - N/A   Partly Cloudy
4:15 PM 77.0 °F 53.6 °F 44% 30.01 in 10.0 mi SSE 3.5 mph - N/A   Partly Cloudy
4:35 PM 77.0 °F 53.6 °F 44% 30.00 in 10.0 mi SE 4.6 mph - N/A   Partly Cloudy
4:55 PM 77.0 °F 51.8 °F 41% 30.00 in 10.0 mi Calm Calm - N/A   Clear
5:15 PM 77.0 °F 51.8 °F 41% 30.00 in 10.0 mi Calm Calm - N/A   Clear
5:35 PM 77.0 °F 51.8 °F 41% 29.99 in 10.0 mi SW 3.5 mph - N/A   Clear
5:55 PM 77.0 °F 53.6 °F 44% 29.99 in 10.0 mi Calm Calm - N/A   Clear
6:15 PM 75.2 °F 53.6 °F 47% 29.99 in 10.0 mi Calm Calm - N/A   Clear
6:35 PM 73.4 °F 55.4 °F 53% 30.00 in 10.0 mi Calm Calm - N/A   Unknown
6:55 PM 66.2 °F 55.4 °F 68% 30.00 in 10.0 mi Calm Calm - N/A   Unknown
7:15 PM 64.4 °F 55.4 °F 73% 30.00 in 10.0 mi Calm Calm - N/A   Unknown
7:35 PM 64.4 °F 53.6 °F 68% 30.00 in 10.0 mi Calm Calm - N/A   Unknown
7:55 PM 60.8 °F 53.6 °F 77% 30.00 in 10.0 mi Calm Calm - N/A   Unknown
8:15 PM 59.0 °F 53.6 °F 82% 30.00 in 10.0 mi Calm Calm - N/A   Unknown
8:35 PM 59.0 °F 53.6 °F 82% 29.99 in 10.0 mi Calm Calm - N/A   Unknown
8:55 PM 57.2 °F 51.8 °F 82% 30.00 in 10.0 mi Calm Calm - N/A   Unknown
9:15 PM 57.2 °F 53.6 °F 88% 29.99 in 10.0 mi Calm Calm - N/A   Unknown
9:55 PM 55.4 °F 51.8 °F 88% 29.99 in 10.0 mi Calm Calm - N/A   Unknown
10:15 PM 55.4 °F 50.0 °F 82% 30.00 in 10.0 mi Calm Calm - N/A   Unknown
10:35 PM 55.4 °F 50.0 °F 82% 30.00 in 10.0 mi Calm Calm - N/A   Unknown
11:15 PM 53.6 °F 50.0 °F 88% 29.99 in 10.0 mi Calm Calm - N/A   Unknown
11:35 PM 53.6 °F 50.0 °F 88% 29.99 in 10.0 mi Calm Calm - N/A   Unknown
11:55 PM 53.6 °F 50.0 °F 88% 29.99 in 10.0 mi Calm Calm - N/A   Unknown